DLONG RJFF-RJAA

Flight info

Callsign DLONG
Flight time N/A
Altitude 37000
Route CARSE Y81 RUTAS
Aircraft A320/M-SDE3FGHIRWY/LB1

Departure

Time 2026-04-28 14:35
Airport Fukuoka Airport (RJFF)

Arrival

Time N/A
Airport Narita International Airport (RJAA)
Time Latitude Longitude Altitude Speed Heading
2026-04-28 14:10 33.59590 130.44831 26 ft 0 kts 60°
2026-04-28 14:25 33.59588 130.44825 12 ft 4 kts 60°
2026-04-28 14:25 33.59575 130.44797 20 ft 4 kts 65°
2026-04-28 14:26 33.59565 130.44767 -10 ft 4 kts 78°
2026-04-28 14:26 33.59565 130.44737 32 ft 4 kts 127°
2026-04-28 14:26 33.59570 130.44730 46 ft 0 kts 150°
2026-04-28 14:28 33.59542 130.44748 26 ft 7 kts 150°
2026-04-28 14:28 33.59507 130.44739 26 ft 5 kts 218°
2026-04-28 14:29 33.59488 130.44713 26 ft 6 kts 216°
2026-04-28 14:29 33.59437 130.44721 26 ft 8 kts 151°
2026-04-28 14:29 33.59380 130.44760 27 ft 13 kts 150°
2026-04-28 14:29 33.59284 130.44825 27 ft 19 kts 150°
2026-04-28 14:30 33.59150 130.44918 28 ft 25 kts 150°
2026-04-28 14:30 33.59006 130.45016 29 ft 24 kts 150°
2026-04-28 14:30 33.58852 130.45120 30 ft 26 kts 150°
2026-04-28 14:30 33.58692 130.45228 31 ft 27 kts 151°
2026-04-28 14:31 33.58525 130.45343 32 ft 28 kts 150°
2026-04-28 14:31 33.58352 130.45461 33 ft 29 kts 150°
2026-04-28 14:31 33.58175 130.45581 34 ft 29 kts 150°
2026-04-28 14:31 33.57995 130.45704 34 ft 30 kts 150°
2026-04-28 14:32 33.57813 130.45829 37 ft 30 kts 150°
2026-04-28 14:32 33.57691 130.45911 38 ft 11 kts 151°
2026-04-28 14:32 33.57631 130.45951 37 ft 9 kts 151°
2026-04-28 14:32 33.57579 130.45955 38 ft 6 kts 204°
2026-04-28 14:33 33.57555 130.45918 39 ft 6 kts 240°
2026-04-28 14:33 33.57525 130.45853 39 ft 11 kts 244°
2026-04-28 14:33 33.57567 130.45770 39 ft 15 kts 328°
2026-04-28 14:33 33.57601 130.45747 39 ft 1 kts 330°
2026-04-28 14:34 33.57836 130.45585 37 ft 75 kts 330°
2026-04-28 14:34 33.58478 130.45144 33 ft 135 kts 330°
2026-04-28 14:34 33.59078 130.44731 55 ft 162 kts 329°
2026-04-28 14:35 33.60379 130.43835 897 ft 159 kts 328°
2026-04-28 14:35 33.61337 130.43181 1642 ft 158 kts 327°
2026-04-28 14:35 33.62342 130.42485 2141 ft 180 kts 329°
2026-04-28 14:35 33.63508 130.41699 2595 ft 204 kts 328°
2026-04-28 14:36 33.64844 130.40916 3199 ft 230 kts 343°
2026-04-28 14:36 33.66539 130.41063 3752 ft 260 kts 22°
2026-04-28 14:36 33.67927 130.42481 4649 ft 275 kts 51°
2026-04-28 14:36 33.68902 130.44501 5492 ft 285 kts 65°
2026-04-28 14:37 33.69268 130.46862 6287 ft 296 kts 97°
2026-04-28 14:37 33.68669 130.49238 7045 ft 301 kts 121°
2026-04-28 14:37 33.67396 130.51211 7876 ft 299 kts 145°
2026-04-28 14:37 33.65685 130.52591 8741 ft 297 kts 155°
2026-04-28 14:38 33.63889 130.53825 9635 ft 296 kts 162°
2026-04-28 14:38 33.61990 130.54791 10438 ft 300 kts 165°
2026-04-28 14:38 33.59987 130.55775 10729 ft 323 kts 165°
2026-04-28 14:38 33.57829 130.56829 10957 ft 347 kts 165°
2026-04-28 14:39 33.55530 130.57964 11310 ft 365 kts 164°
2026-04-28 14:39 33.53163 130.59152 11959 ft 372 kts 164°
2026-04-28 14:39 33.50763 130.60369 12675 ft 377 kts 164°
2026-04-28 14:39 33.48336 130.61600 13400 ft 380 kts 164°
2026-04-28 14:40 33.45885 130.62839 14066 ft 385 kts 165°
2026-04-28 14:40 33.45050 130.63261 14278 ft 386 kts 165°
2026-04-28 14:40 33.40891 130.65350 15258 ft 393 kts 165°
2026-04-28 14:40 33.38356 130.66619 15844 ft 397 kts 165°
2026-04-28 14:41 33.35794 130.67901 16430 ft 401 kts 165°
2026-04-28 14:41 33.33218 130.69232 17005 ft 409 kts 161°
2026-04-28 14:41 33.30757 130.71039 17568 ft 423 kts 150°
2026-04-28 14:41 33.28548 130.73441 18128 ft 437 kts 139°
2026-04-28 14:42 33.26696 130.76390 18652 ft 450 kts 128°
2026-04-28 14:42 33.25057 130.79530 19133 ft 453 kts 128°
2026-04-28 14:42 33.23378 130.82734 19621 ft 456 kts 128°
2026-04-28 14:42 33.21687 130.85954 20103 ft 459 kts 128°
2026-04-28 14:43 33.19980 130.89198 20525 ft 463 kts 128°
2026-04-28 14:43 33.18436 130.92609 20987 ft 471 kts 119°
2026-04-28 14:43 33.17311 130.96309 21398 ft 479 kts 109°
2026-04-28 14:43 33.16465 131.00173 21815 ft 482 kts 108°
2026-04-28 14:44 33.15897 131.02796 22102 ft 484 kts 108°
2026-04-28 14:44 33.15052 131.06695 22506 ft 487 kts 108°
2026-04-28 14:44 33.14199 131.10622 22927 ft 490 kts 108°
2026-04-28 14:44 33.13338 131.14565 23341 ft 493 kts 108°
2026-04-28 14:45 33.12481 131.18475 23724 ft 495 kts 108°
2026-04-28 14:45 33.11607 131.22454 24041 ft 497 kts 108°
2026-04-28 14:45 33.10727 131.26458 24367 ft 500 kts 108°
2026-04-28 14:45 33.09843 131.30479 24679 ft 503 kts 108°
2026-04-28 14:46 33.09004 131.34543 24972 ft 507 kts 104°
2026-04-28 14:46 33.08565 131.38732 25273 ft 512 kts 95°
2026-04-28 14:46 33.08626 131.42998 25573 ft 517 kts 86°
2026-04-28 14:46 33.09133 131.47257 25865 ft 520 kts 82°
2026-04-28 14:47 33.09703 131.51525 26156 ft 522 kts 82°
2026-04-28 14:47 33.10270 131.55814 26424 ft 525 kts 82°
2026-04-28 14:47 33.10832 131.60124 26694 ft 526 kts 82°
2026-04-28 14:47 33.11391 131.64442 26935 ft 529 kts 82°
2026-04-28 14:48 33.11951 131.68785 27200 ft 531 kts 82°
2026-04-28 14:48 33.12511 131.73144 27459 ft 533 kts 82°
2026-04-28 14:48 33.13071 131.77524 27699 ft 534 kts 82°
2026-04-28 14:48 33.13632 131.81912 27943 ft 536 kts 82°
2026-04-28 14:49 33.14196 131.86318 28173 ft 538 kts 82°
2026-04-28 14:49 33.14766 131.90741 28432 ft 539 kts 82°
2026-04-28 14:49 33.15336 131.95155 28770 ft 538 kts 82°
2026-04-28 14:49 33.15901 131.99565 29107 ft 537 kts 82°
2026-04-28 14:50 33.16460 132.03965 29463 ft 536 kts 82°
2026-04-28 14:50 33.17015 132.08363 29793 ft 535 kts 82°
2026-04-28 14:50 33.17565 132.12756 30128 ft 535 kts 82°
2026-04-28 14:51 33.17742 132.14177 30220 ft 534 kts 82°